Location: Mount Hamilton
(37.3433°N, 121.6347°W)
Time: 19:05:37
(UTC-07:00)

Hubble Space Telescope - Visible Passes

Search period start: 16 July 2018 00:00
Search period end: 26 July 2018 00:00
Orbit: 537 x 541 km, 28.5° (Epoch: 16 July)

Date Brightness Start Highest point End Pass type
(mag) Time Alt. Az. Time Alt. Az. Time Alt. Az.
16 Jul 2.5 04:26:53 17° S 04:27:22 17° SSE 04:30:04 10° SE visible
17 Jul 2.4 04:17:00 19° SSE 04:17:00 19° SSE 04:19:51 10° ESE visible
18 Jul 2.4 04:07:10 20° SSE 04:07:10 20° SSE 04:09:34 10° ESE visible
19 Jul 2.6 03:57:23 19° SE 03:57:23 19° SE 03:59:15 10° ESE visible
20 Jul 2.9 03:47:41 16° SE 03:47:41 16° SE 03:48:52 10° ESE visible
20 Jul 2.3 05:23:11 10° WSW 05:26:15 20° S 05:29:19 10° SE visible
21 Jul 3.2 03:38:06 12° SE 03:38:06 12° SE 03:38:28 10° SE visible
21 Jul 2.4 05:13:28 12° SW 05:15:47 18° SSW 05:18:41 10° SSE visible
22 Jul 2.5 05:04:02 14° SW 05:05:20 16° SSW 05:07:58 10° SSE visible
23 Jul 2.6 04:54:46 14° SSW 04:54:52 14° SSW 04:57:07 10° SSE visible
24 Jul 3.0 04:45:42 11° S 04:45:42 11° S 04:46:04 10° S visible
